This is the latest recevied weather packets stored in our database for station/object KA1JKB. If no packets are shown the sender has not sent any weather packets the latest 10 day(s).
| Time | Temp. | Humidity | Pressure | Rain* | Wind** | Luminosity | Snow |
|---|---|---|---|---|---|---|---|
| 1777822715 | 11.11° C | 53% | 1010.9 hPa | 0 mm | - | 208 W/m² | - |
| 1777822413 | 11.11° C | 53% | 1011 hPa | 0 mm | - | 123 W/m² | - |
| 1777822110 | 11.11° C | 53% | 1011.2 hPa | 0 mm | - | 130 W/m² | - |
| 1777821808 | 11.11° C | 53% | 1010.9 hPa | 0 mm | - | 190 W/m² | - |
| 1777821505 | 11.11° C | 53% | 1011.2 hPa | 0 mm | - | 225 W/m² | - |
| 1777821202 | 11.11° C | 54% | 1011.3 hPa | 0 mm | - | 231 W/m² | - |
| 1777820899 | 11.11° C | 53% | 1011 hPa | 0 mm | - | 199 W/m² | - |
| 1777820595 | 10.56° C | 54% | 1011.3 hPa | 0 mm | - | 189 W/m² | - |
| 1777820292 | 10.56° C | 52% | 1011 hPa | 0 mm | - | 184 W/m² | - |
| 1777819990 | 11.11° C | 52% | 1011 hPa | 0 mm | - | 164 W/m² | - |
| 1777819686 | 11.11° C | 52% | 1011.2 hPa | 0 mm | - | 154 W/m² | - |
| 1777819386 | 11.11° C | 50% | 1011.3 hPa | 0 mm | - | 143 W/m² | - |
| 1777819082 | 11.11° C | 51% | 1011.3 hPa | 0 mm | - | 145 W/m² | - |
| 1777818778 | 11.11° C | 52% | 1011 hPa | 0 mm | - | 131 W/m² | - |
| 1777818474 | 11.67° C | 50% | 1011.4 hPa | 0 mm | - | 131 W/m² | - |
| 1777818172 | 11.67° C | 50% | 1011.2 hPa | 0 mm | - | 157 W/m² | - |
| 1777817868 | 12.22° C | 48% | 1011 hPa | 0 mm | - | 193 W/m² | - |
| 1777817566 | 12.78° C | 50% | 1010.9 hPa | 0 mm | - | 257 W/m² | - |
| 1777817262 | 12.78° C | 50% | 1011.3 hPa | 0 mm | - | 435 W/m² | - |
| 1777816960 | 12.22° C | 50% | 1011.2 hPa | 0 mm | - | 759 W/m² | - |
| 1777816656 | 12.22° C | 50% | 1011.2 hPa | 0 mm | - | 632 W/m² | - |
| 1777816353 | 11.67° C | 51% | 1011.4 hPa | 0 mm | - | 664 W/m² | - |
| 1777816051 | 11.67° C | 51% | 1011.4 hPa | 0 mm | - | 345 W/m² | - |
| 1777815748 | 11.67° C | 51% | 1011.3 hPa | 0 mm | - | 300 W/m² | - |
| 1777815446 | 11.67° C | 51% | 1011.2 hPa | 0 mm | - | 580 W/m² | - |
* Rain latest hour (hover to see other rain measurements)
** Current wind speed in m/s (hover to see current wind gust speed)